Tracking 35051 objects as of 17-Aug-2026
HD Live streaming from Space Station
objects crossing your sky now

STARLINK-38195


10-day predictions
STARLINK-38195 is classified as:


NORAD ID: 100196
Int'l Code: 2026-175T
Launch date: August 1, 2026
Source: United States (US)
Launch site: AIR FORCE WESTERN TEST RANGE (AFWTR)
Your satellite tracking list
Your tracking list is empty




NASA's NSSDC Master Catalog

Two Line Element Set (TLE):
1 A0196U 26175T   26229.55173996  .00155688  00000-0  79697-3 0  9997
2 A0196  97.2839  70.3385 0001809  91.0153 269.1323 15.80874244  3832
Source of the keplerian elements: AFSPC